Tracking 23726 objects as of 22-Sep-2021
HD Live streaming from Space Station
objects crossing your sky now

STARLINK-1760

Track STARLINK-1760 now!
10-day predictions
STARLINK-1760 is classified as:


NORAD ID: 46341
Int'l Code: 2020-062S
Perigee: 552.8 km
Apogee: 555.9 km
Inclination: 53.1 °
Period: 95.6 minutes
Semi major axis: 6925 km
RCS: Unknown
Launch date: September 3, 2020
Source: United States (US)
Launch site: AIR FORCE EASTERN TEST RANGE (AFETR)
aabbcc
Your satellite tracking list
Your tracking list is empty




NASA's NSSDC Master Catalog

Two Line Element Set (TLE):
1 46341U 20062S   21265.05442626  .00000818  00000-0  73837-4 0  9992
2 46341  53.0545 112.3504 0002198  81.2538 278.8700 15.06403278 58972
Source of the keplerian elements: AFSPC